Wind_Speed
92 94 96 95 100 102 103 104 106 109 112 112 114 121 124 122 125 126 129 135 136 141 141 140 140 136 138
92 97 99 103 105 103 105 107 104 107 116 119 112 113 119 122 131 137 140 142 143 136 135 137 135 136 141
94 90 99 99 104 105 102 107 104 109 116 120 124 126 134 135 140 142 140 135 142 144 138 137 139 143 140
101 99 107 104 104 108 112 117 118 119 125 129 132 135 138 137 137 140 139 136 139 138 138 141 139 140 138
118 116 118 118 117 118 122 126 129 131 135 136 136 138 135 133 133 136 138 139 138 141 140 138 141 125 120
117 117 118 117 116 119 122 128 131 131 128 127 127 130 130 133 136 138 138 141 143 139 139 131 118 123 118
106 110 111 110 113 116 115 117 119 122 123 127 127 132 134 137 139 141 144 141 137 135 119 122 120 116 107
102 103 104 105 109 111 113 115 118 119 121 126 129 134 140 142 143 142 140 138 124 119 123 120 113 104 98
100 102 104 107 110 113 116 118 120 122 125 129 133 136 141 143 140 140 133 119 123 124 120 109 103 98 91
91 93 96 100 105 109 114 116 120 125 127 130 132 132 132 136 137 127 124 124 121 116 107 100 92 85 79
93 96 98 100 102 105 108 111 115 119 120 123 128 130 128 120 122 124 123 114 106 104 97 85 79 68 64
92 94 96 97 99 103 106 107 107 111 116 118 119 117 114 114 116 111 109 101 94 91 83 71 66 58 53
84 86 86 84 86 91 93 96 99 103 107 110 111 113 113 103 97 94 91 88 81 78 69 60 58 55 51
64 66 68 72 76 81 86 93 99 104 106 107 109 103 95 89 87 85 79 69 71 66 57 54 53 47 45
55 61 67 73 79 85 91 96 100 105 108 105 99 91 85 77 77 75 65 61 57 54 50 47 45 41 35
61 66 72 77 82 87 93 97 100 98 96 95 92 90 83 72 57 67 55 51 49 46 44 42 38 33 29
66 69 73 77 84 90 94 96 96 94 93 88 85 77 73 66 56 53 51 43 44 41 39 34 31 26 24
Wind_Direction
269 269 272 273 274 278 279 282 282 282 284 285 286 288 291 292 292 294 294 296 297 298 298 298 300 300 302
268 271 272 273 277 279 278 283 282 283 286 289 289 285 289 290 291 294 295 296 299 299 297 298 304 302 302
264 264 270 274 277 282 279 284 281 282 285 288 287 288 290 291 292 295 296 296 295 299 300 301 301 303 303
258 262 265 269 272 274 277 281 282 282 285 288 289 290 289 292 292 294 295 296 297 300 301 301 304 303 304
262 264 267 271 273 274 274 275 280 283 284 286 287 288 290 291 292 292 294 297 298 301 304 305 305 304 304
265 266 268 271 273 274 275 276 279 282 284 287 289 289 292 292 294 295 297 299 302 305 305 306 304 306 306
266 268 271 273 274 276 277 278 281 284 287 288 290 291 292 294 294 297 300 301 304 307 306 307 307 308 308
267 269 272 273 274 277 278 281 282 285 287 288 290 291 292 294 296 299 300 305 307 308 308 309 310 309 309
267 269 271 273 275 277 278 283 284 285 286 288 289 291 294 296 298 302 305 308 309 309 308 310 310 308 307
271 273 275 276 278 279 281 283 282 284 286 289 291 292 294 297 301 304 306 308 308 307 308 309 307 307 307
270 273 275 277 278 280 282 283 285 286 288 290 292 294 297 300 302 305 306 306 306 306 307 309 306 308 306
271 274 276 278 280 281 283 285 286 288 290 291 293 297 300 303 305 304 304 305 306 305 308 311 307 309 310
272 276 279 282 282 283 287 288 288 290 291 293 296 298 304 306 305 303 303 306 307 304 311 309 311 312 313
276 280 284 286 288 289 290 291 292 292 293 296 301 306 308 308 307 306 306 309 306 309 313 311 312 315 314
287 288 289 291 293 294 294 293 294 296 301 307 314 310 310 311 312 308 311 309 307 310 311 312 313 315 314
291 293 296 297 297 296 296 296 298 304 312 316 316 315 313 314 316 308 312 311 311 313 314 315 316 317 314
299 299 300 302 300 299 299 303 308 316 318 318 317 315 315 317 316 312 313 317 315 316 315 316 316 319 316
Height
10559 10552 10549 10551 10548 10546 10541 10536 10529 10523 10516 10510 10501 10491 10483 10473 10463 10450 10441 10433 10421 10410 10399 10387 10376 10363 10351
10542 10538 10530 10527 10530 10527 10522 10517 10508 10501 10493 10486 10476 10465 10458 10447 10436 10425 10414 10403 10392 10378 10366 10357 10339 10328 10315
10526 10523 10512 10513 10511 10507 10502 10495 10485 10477 10470 10464 10453 10444 10434 10421 10408 10399 10386 10374 10363 10349 10336 10327 10313 10296 10278
10509 10508 10502 10498 10494 10489 10481 10474 10466 10458 10447 10439 10426 10418 10406 10396 10383 10372 10355 10343 10332 10320 10310 10296 10281 10260 10240
10489 10491 10485 10481 10475 10469 10461 10453 10447 10435 10422 10420 10402 10395 10384 10372 10358 10344 10331 10318 10307 10294 10278 10261 10244 10222 10206
10472 10469 10465 10462 10456 10449 10442 10431 10423 10412 10399 10390 10379 10365 10355 10340 10329 10313 10302 10289 10276 10263 10246 10228 10208 10191 10171
10454 10449 10447 10442 10435 10429 10419 10409 10403 10391 10378 10363 10353 10334 10322 10310 10296 10284 10273 10260 10247 10234 10212 10197 10177 10158 10139
10436 10431 10427 10421 10413 10406 10398 10388 10378 10373 10359 10341 10328 10309 10289 10279 10269 10256 10239 10231 10216 10200 10181 10162 10147 10126 10112
10415 10411 10406 10401 10395 10386 10375 10368 10356 10347 10333 10319 10307 10292 10267 10248 10238 10226 10207 10199 10185 10167 10149 10136 10122 10103 10089
10395 10391 10387 10380 10373 10365 10356 10348 10332 10319 10309 10295 10278 10269 10259 10231 10213 10199 10181 10173 10155 10137 10121 10115 10099 10085 10069
10378 10373 10369 10361 10353 10343 10333 10321 10309 10298 10286 10271 10255 10242 10231 10223 10193 10178 10159 10149 10134 10112 10098 10094 10077 10072 10055
10361 10353 10346 10338 10330 10320 10310 10301 10288 10274 10257 10245 10230 10220 10209 10202 10183 10156 10134 10121 10113 10090 10083 10074 10059 10053 10047
10340 10333 10327 10318 10308 10300 10290 10277 10267 10252 10237 10224 10212 10199 10189 10178 10160 10137 10124 10101 10090 10073 10068 10057 10046 10037 10030
10323 10317 10309 10301 10292 10282 10270 10256 10241 10225 10216 10206 10193 10180 10165 10147 10132 10112 10099 10091 10067 10060 10055 10045 10035 10029 10019
10308 10302 10295 10285 10275 10263 10248 10234 10222 10206 10189 10174 10161 10146 10137 10131 10108 10088 10082 10071 10060 10050 10042 10035 10025 10019 10013
10294 10287 10277 10266 10255 10240 10226 10213 10199 10191 10176 10159 10142 10119 10104 10101 10101 10067 10068 10057 10046 10039 10031 10023 10018 10012 10005
10278 10269 10259 10247 10232 10217 10204 10191 10180 10170 10159 10140 10124 10108 10092 10079 10075 10060 10051 10047 10037 10029 10021 10016 10011 10007 10000